Flag for Norway Weather past 2 weeks in Orkanger/Fannrem, Norway

Now
53 °F

Cool.


Feels Like: 53 °F
Forecast: 45 / 67 °F
Wind: 1 mph from North

Location: Vinjeora Ii

Current Time: Aug 23, 2014 at 11:42:00 AM

Latest Report: Aug 23, 2014 at 11:00 AM


Visibility: N/A

Pressure: 29.60 "Hg

Humidity: 87%

Dew point: 49 °F

Location of Orkanger/FannremLocation

Historic Weather in Orkanger/Fannrem — Graph

°F

Orkanger/Fannrem temperature yesterday

Maximum temperature yesterday: 60 °F (at 2:00 PM)
Minimum temperature yesterday: 48 °F (at 5:00 AM)
Average temperature yesterday: 52 °F

Past Weeks' High & Low Weather Summary

 TemperatureHumidityPressure
High78 °F (Aug 9, 3:00 PM)94% (Aug 21, 7:00 AM)29.96 "Hg (Aug 21, 7:00 AM)
Low46 °F (Aug 23, 5:00 AM)20% (Aug 10, 3:00 PM)29.21 "Hg (Aug 18, 8:00 AM)
Average58 °F74%29.54 "Hg
* Reported Aug 8 10:00 AM — Aug 23 10:00 AM, Orkanger/Fannrem, Weather by CustomWeather, © 2014

Note: Actual official high and low records may vary slightly from our data, if they occured in-between our weather recording intervals... More about our weather records

Advertising

Orkanger/Fannrem weather history for previous 24 hours

 ConditionsComfort  
Time TempWeatherWind HumidityBarometerVisibility
10:00 AM
Aug 23
53 °FCool.1 mph91%29.61 "HgN/A
9:00 AM51 °FCool.1 mph93%29.61 "HgN/A
8:00 AM48 °FCool.1 mph93%29.61 "HgN/A
7:00 AM47 °FCool.1 mph93%29.62 "HgN/A
6:00 AM46 °FCool.2 mph93%29.62 "HgN/A
5:00 AM46 °FCool.1 mph93%29.62 "HgN/A
4:00 AM47 °FCool.1 mph93%29.63 "HgN/A
3:00 AM47 °FCool.1 mph93%29.63 "HgN/A
2:00 AM47 °FCool.1 mph92%29.63 "HgN/A
1:00 AM47 °FCool.1 mph92%29.64 "HgN/A
12:00 AM48 °FCool.1 mph91%29.65 "HgN/A
11:00 PM
Aug 22
50 °FCool.1 mph91%29.65 "HgN/A
10:00 PM52 °FCool.1 mph91%29.65 "HgN/A
9:00 PM52 °FCool.1 mph89%29.64 "HgN/A
8:00 PM55 °FCool.No wind88%29.64 "HgN/A
7:00 PM55 °FCool.1 mph87%29.64 "HgN/A
6:00 PM56 °FCool.1 mph86%29.65 "HgN/A
5:00 PM55 °FCool.No wind87%29.65 "HgN/A
4:00 PM55 °FCool.2 mph85%29.67 "HgN/A
3:00 PM59 °FCool.2 mph69%29.65 "HgN/A
2:00 PM60 °FCool.1 mph66%29.66 "HgN/A
1:00 PM58 °FCool.2 mph69%29.66 "HgN/A
12:00 PM57 °FCool.1 mph68%29.67 "HgN/A
11:00 AM55 °FCool.1 mph78%29.68 "HgN/A
Weather by CustomWeather, © 2014

See weather overviewHow to use our weather pages